Location: Morisset
(33.1080°S, 151.4871°E)
Time: 08:57:35
(UTC+00:00)

OAO 2 Rocket - Pass Details

Date: 29 October 2020
Orbit: 676 x 746 km, 35.0° (Epoch: 27 November)

Event Time Altitude Azimuth Distance (km) Brightness Sun altitude
Exits shadow 17:46:15 21° 315° (NW) 1,576 4.5 -14.5°
Maximum altitude 17:49:30 52° 23° (NNE) 895 3.8 -13.9°
Drops below altitude 10° 17:54:36 10° 99° (E) 2,238 7.2 -12.9°
Sets 17:57:08 0° 103° (ESE) 3,172 8.5 -12.5°
